GEDCS FPPR-FGSL

Flight info

Callsign GEDCS
Flight time 0h 57m
Altitude 3500
Route MBO
Aircraft BE58

Departure

Time 2026-05-04 18:10
Airport Principe Airport (FPPR)

Arrival

Time 2026-05-04 19:08
Airport Malabo International Airport (FGSL)
Time Latitude Longitude Altitude Speed Heading
2026-05-04 17:47 1.66580 7.41202 595 ft 0 kts 165°
2026-05-04 18:07 1.66570 7.41202 594 ft 7 kts 189°
2026-05-04 18:07 1.66502 7.41179 595 ft 12 kts 215°
2026-05-04 18:08 1.66481 7.41122 594 ft 2 kts 255°
2026-05-04 18:08 1.66478 7.41111 594 ft 0 kts 246°
2026-05-04 18:08 1.66468 7.41107 594 ft 0 kts 181°
2026-05-04 18:08 1.66467 7.41107 594 ft 0 kts 180°
2026-05-04 18:09 1.66438 7.41107 595 ft 18 kts 181°
2026-05-04 18:09 1.65417 7.41120 770 ft 95 kts 180°
2026-05-04 18:10 1.64778 7.41252 1105 ft 99 kts 147°
2026-05-04 18:10 1.64285 7.41882 1098 ft 133 kts 115°
2026-05-04 18:10 1.64217 7.42813 1251 ft 139 kts 80°
2026-05-04 18:10 1.64607 7.43674 1486 ft 137 kts 51°
2026-05-04 18:11 1.65307 7.44319 1687 ft 138 kts 38°
2026-05-04 18:11 1.66125 7.44834 1861 ft 143 kts 24°
2026-05-04 18:11 1.66983 7.45338 2082 ft 143 kts 33°
2026-05-04 18:11 1.67791 7.45903 2317 ft 142 kts 35°
2026-05-04 18:12 1.68609 7.46437 2556 ft 141 kts 33°
2026-05-04 18:12 1.69376 7.47024 2825 ft 137 kts 34°
2026-05-04 18:12 1.70107 7.47608 3098 ft 135 kts 39°
2026-05-04 18:12 1.70814 7.48209 3347 ft 134 kts 35°
2026-05-04 18:13 1.71593 7.48787 3401 ft 148 kts 34°
2026-05-04 18:13 1.72466 7.49394 3483 ft 154 kts 32°
2026-05-04 18:13 1.74334 7.50641 3516 ft 170 kts 32°
2026-05-04 18:14 1.75351 7.51265 3516 ft 175 kts 28°
2026-05-04 18:14 1.76412 7.51865 3514 ft 178 kts 27°
2026-05-04 18:14 1.77499 7.52478 3514 ft 182 kts 27°
2026-05-04 18:15 1.79748 7.53743 3513 ft 188 kts 27°
2026-05-04 18:15 1.82046 7.55034 3512 ft 192 kts 27°
2026-05-04 18:15 1.83208 7.55688 3513 ft 193 kts 27°
2026-05-04 18:16 1.84374 7.56344 3513 ft 194 kts 27°
2026-05-04 18:16 1.85542 7.57003 3513 ft 194 kts 27°
2026-05-04 18:16 1.86714 7.57663 3514 ft 194 kts 26°
2026-05-04 18:17 1.89244 7.58549 3516 ft 193 kts 15°
2026-05-04 18:17 1.90513 7.58957 3517 ft 192 kts 15°
2026-05-04 18:17 1.93047 7.59777 3519 ft 192 kts 15°
2026-05-04 18:18 1.94313 7.60187 3519 ft 192 kts 15°
2026-05-04 18:18 1.95582 7.60598 3519 ft 192 kts 15°
2026-05-04 18:18 1.96855 7.61011 3519 ft 192 kts 15°
2026-05-04 18:18 1.98118 7.61420 3519 ft 192 kts 15°
2026-05-04 18:19 2.00637 7.62260 3516 ft 193 kts 21°
2026-05-04 18:19 2.01860 7.62805 3520 ft 193 kts 22°
2026-05-04 18:19 2.03080 7.63346 3519 ft 193 kts 21°
2026-05-04 18:20 2.04299 7.63885 3519 ft 193 kts 21°
2026-05-04 18:20 2.05528 7.64430 3519 ft 193 kts 21°
2026-05-04 18:20 2.06748 7.64971 3519 ft 193 kts 21°
2026-05-04 18:20 2.07958 7.65543 3517 ft 193 kts 22°
2026-05-04 18:21 2.09158 7.66123 3517 ft 193 kts 23°
2026-05-04 18:21 2.10360 7.66707 3517 ft 193 kts 23°
2026-05-04 18:21 2.11549 7.67311 3517 ft 193 kts 26°
2026-05-04 18:21 2.12719 7.67956 3517 ft 193 kts 26°
2026-05-04 18:22 2.13896 7.68605 3517 ft 193 kts 26°
2026-05-04 18:22 2.15065 7.69250 3517 ft 193 kts 26°
2026-05-04 18:22 2.16235 7.69894 3517 ft 193 kts 26°
2026-05-04 18:22 2.17408 7.70541 3517 ft 193 kts 26°
2026-05-04 18:23 2.18577 7.71185 3517 ft 193 kts 26°
2026-05-04 18:23 2.19751 7.71833 3517 ft 193 kts 26°
2026-05-04 18:23 2.20920 7.72478 3517 ft 193 kts 26°
2026-05-04 18:23 2.22098 7.73128 3517 ft 193 kts 26°
2026-05-04 18:24 2.23268 7.73773 3517 ft 193 kts 26°
2026-05-04 18:24 2.24435 7.74417 3517 ft 193 kts 26°
2026-05-04 18:24 2.25608 7.75064 3517 ft 193 kts 26°
2026-05-04 18:24 2.26778 7.75710 3517 ft 193 kts 26°
2026-05-04 18:25 2.27947 7.76355 3517 ft 193 kts 26°
2026-05-04 18:25 2.29116 7.77001 3517 ft 193 kts 26°
2026-05-04 18:25 2.30294 7.77651 3517 ft 193 kts 26°
2026-05-04 18:25 2.31463 7.78297 3517 ft 193 kts 26°
2026-05-04 18:26 2.32633 7.78944 3517 ft 193 kts 26°
2026-05-04 18:26 2.33804 7.79591 3517 ft 193 kts 26°
2026-05-04 18:26 2.34975 7.80238 3517 ft 193 kts 26°
2026-05-04 18:26 2.36145 7.80884 3517 ft 193 kts 26°
2026-05-04 18:27 2.37313 7.81531 3517 ft 193 kts 26°
2026-05-04 18:27 2.38491 7.82182 3517 ft 193 kts 26°
2026-05-04 18:27 2.39661 7.82829 3517 ft 193 kts 26°
2026-05-04 18:27 2.40831 7.83476 3517 ft 193 kts 26°
2026-05-04 18:28 2.42000 7.84123 3517 ft 193 kts 26°
2026-05-04 18:28 2.43170 7.84770 3517 ft 193 kts 26°
2026-05-04 18:28 2.44339 7.85418 3517 ft 193 kts 26°
2026-05-04 18:28 2.45508 7.86065 3517 ft 193 kts 26°
2026-05-04 18:29 2.46685 7.86717 3517 ft 193 kts 26°
2026-05-04 18:29 2.47854 7.87364 3517 ft 193 kts 26°
2026-05-04 18:29 2.49025 7.88012 3517 ft 193 kts 26°
2026-05-04 18:29 2.50194 7.88660 3517 ft 193 kts 26°
2026-05-04 18:30 2.52533 7.89957 3517 ft 193 kts 26°
2026-05-04 18:30 2.53702 7.90604 3517 ft 193 kts 26°
2026-05-04 18:30 2.54881 7.91258 3517 ft 193 kts 26°
2026-05-04 18:31 2.56017 7.91968 3518 ft 194 kts 30°
2026-05-04 18:31 2.57143 7.92695 3517 ft 194 kts 30°
2026-05-04 18:31 2.58269 7.93425 3518 ft 194 kts 30°
2026-05-04 18:31 2.59395 7.94155 3518 ft 194 kts 30°
2026-05-04 18:32 2.60521 7.94884 3518 ft 194 kts 30°
2026-05-04 18:32 2.61647 7.95614 3518 ft 194 kts 30°
2026-05-04 18:32 2.62781 7.96349 3518 ft 194 kts 30°
2026-05-04 18:32 2.63908 7.97080 3518 ft 194 kts 30°
2026-05-04 18:33 2.65032 7.97814 3517 ft 194 kts 32°
2026-05-04 18:33 2.66133 7.98583 3518 ft 194 kts 33°
2026-05-04 18:33 2.67235 7.99354 3518 ft 194 kts 32°
2026-05-04 18:33 2.68342 8.00126 3518 ft 194 kts 32°
2026-05-04 18:34 2.69445 8.00897 3518 ft 194 kts 32°
2026-05-04 18:34 2.70556 8.01672 3518 ft 194 kts 32°
2026-05-04 18:34 2.71659 8.02443 3518 ft 194 kts 32°
2026-05-04 18:34 2.72760 8.03213 3518 ft 194 kts 32°
2026-05-04 18:35 2.73862 8.03983 3518 ft 194 kts 32°
2026-05-04 18:35 2.74964 8.04753 3518 ft 194 kts 32°
2026-05-04 18:35 2.76066 8.05524 3518 ft 194 kts 32°
2026-05-04 18:35 2.77168 8.06294 3518 ft 194 kts 32°
2026-05-04 18:36 2.78279 8.07071 3518 ft 194 kts 32°
2026-05-04 18:36 2.79381 8.07843 3518 ft 194 kts 32°
2026-05-04 18:36 2.80483 8.08613 3518 ft 194 kts 32°
2026-05-04 18:36 2.81585 8.09385 3518 ft 194 kts 32°
2026-05-04 18:37 2.82687 8.10156 3518 ft 194 kts 32°
2026-05-04 18:37 2.83789 8.10927 3518 ft 194 kts 32°
2026-05-04 18:37 2.84891 8.11699 3518 ft 194 kts 32°
2026-05-04 18:37 2.86001 8.12476 3518 ft 194 kts 32°
2026-05-04 18:38 2.87104 8.13249 3518 ft 194 kts 32°
2026-05-04 18:38 2.88206 8.14021 3518 ft 194 kts 32°
2026-05-04 18:38 2.89310 8.14795 3518 ft 194 kts 32°
2026-05-04 18:38 2.90376 8.15619 3518 ft 195 kts 40°
2026-05-04 18:39 2.91398 8.16506 3519 ft 195 kts 38°
2026-05-04 18:39 2.92322 8.17494 3517 ft 196 kts 52°
2026-05-04 18:39 2.93152 8.18583 3519 ft 196 kts 51°
2026-05-04 18:39 2.93975 8.19667 3518 ft 196 kts 50°
2026-05-04 18:40 2.94797 8.20751 3518 ft 196 kts 50°
2026-05-04 18:40 2.95618 8.21839 3518 ft 196 kts 50°
2026-05-04 18:40 2.96436 8.22924 3518 ft 196 kts 50°
2026-05-04 18:40 2.97255 8.24013 3518 ft 196 kts 50°
2026-05-04 18:41 2.98072 8.25102 3518 ft 196 kts 50°
2026-05-04 18:41 2.98894 8.26199 3518 ft 196 kts 50°
2026-05-04 18:41 2.99708 8.27288 3518 ft 196 kts 50°
2026-05-04 18:41 3.00524 8.28381 3518 ft 196 kts 50°
2026-05-04 18:42 3.01336 8.29472 3518 ft 196 kts 50°
2026-05-04 18:42 3.02146 8.30562 3518 ft 196 kts 50°
2026-05-04 18:42 3.02956 8.31655 3518 ft 196 kts 50°
2026-05-04 18:42 3.03764 8.32747 3518 ft 196 kts 50°
2026-05-04 18:43 3.04578 8.33848 3518 ft 196 kts 50°
2026-05-04 18:43 3.05384 8.34941 3518 ft 196 kts 50°
2026-05-04 18:43 3.06191 8.36033 3518 ft 196 kts 50°
2026-05-04 18:43 3.06996 8.37124 3518 ft 196 kts 50°
2026-05-04 18:44 3.07802 8.38217 3518 ft 196 kts 50°
2026-05-04 18:44 3.08344 8.38951 3518 ft 196 kts 50°
2026-05-04 18:44 3.09414 8.40401 3518 ft 196 kts 51°
2026-05-04 18:44 3.10225 8.41502 3519 ft 196 kts 51°
2026-05-04 18:45 3.11033 8.42597 3519 ft 196 kts 51°
2026-05-04 18:45 3.11838 8.43689 3519 ft 196 kts 51°
2026-05-04 18:45 3.12645 8.44784 3519 ft 196 kts 51°
2026-05-04 18:45 3.13453 8.45879 3519 ft 196 kts 51°
2026-05-04 18:46 3.14259 8.46973 3519 ft 196 kts 51°
2026-05-04 18:46 3.15065 8.48067 3519 ft 196 kts 51°
2026-05-04 18:46 3.15878 8.49170 3519 ft 196 kts 51°
2026-05-04 18:46 3.16684 8.50264 3519 ft 196 kts 51°
2026-05-04 18:47 3.17490 8.51359 3519 ft 196 kts 51°
2026-05-04 18:47 3.18297 8.52456 3520 ft 196 kts 51°
2026-05-04 18:47 3.19104 8.53551 3520 ft 196 kts 51°
2026-05-04 18:47 3.19856 8.54687 3520 ft 197 kts 56°
2026-05-04 18:48 3.20573 8.55847 3520 ft 197 kts 55°
2026-05-04 18:48 3.21294 8.57019 3520 ft 197 kts 56°
2026-05-04 18:48 3.22008 8.58184 3520 ft 197 kts 56°
2026-05-04 18:48 3.22721 8.59349 3520 ft 197 kts 56°
2026-05-04 18:49 3.23435 8.60514 3520 ft 197 kts 56°
2026-05-04 18:49 3.24081 8.61725 3520 ft 198 kts 59°
2026-05-04 18:49 3.24716 8.62939 3520 ft 198 kts 60°
2026-05-04 18:49 3.25351 8.64155 3520 ft 198 kts 60°
2026-05-04 18:50 3.25993 8.65381 3519 ft 198 kts 59°
2026-05-04 18:50 3.26629 8.66595 3517 ft 198 kts 59°
2026-05-04 18:50 3.27264 8.67807 3517 ft 197 kts 60°
2026-05-04 18:50 3.28030 8.68927 3518 ft 195 kts 47°
2026-05-04 18:51 3.28897 8.69961 3517 ft 194 kts 43°
2026-05-04 18:51 3.29833 8.70928 3517 ft 194 kts 42°
2026-05-04 18:51 3.30772 8.71895 3517 ft 194 kts 41°
2026-05-04 18:51 3.31795 8.72773 3517 ft 193 kts 34°
2026-05-04 18:52 3.32878 8.73547 3517 ft 192 kts 32°
2026-05-04 18:52 3.33966 8.74313 3517 ft 192 kts 32°
2026-05-04 18:52 3.35056 8.75081 3517 ft 192 kts 32°
2026-05-04 18:52 3.36146 8.75850 3517 ft 192 kts 32°
2026-05-04 18:53 3.37239 8.76621 3517 ft 192 kts 32°
2026-05-04 18:53 3.38339 8.77371 3517 ft 192 kts 28°
2026-05-04 18:53 3.39487 8.78051 3517 ft 191 kts 27°
2026-05-04 18:53 3.40631 8.78719 3517 ft 191 kts 27°
2026-05-04 18:54 3.41781 8.79390 3517 ft 191 kts 27°
2026-05-04 18:54 3.42925 8.80058 3517 ft 191 kts 27°
2026-05-04 18:54 3.44072 8.80728 3517 ft 191 kts 27°
2026-05-04 18:54 3.45227 8.81375 3517 ft 191 kts 25°
2026-05-04 18:55 3.46392 8.82004 3517 ft 191 kts 25°
2026-05-04 18:55 3.48736 8.83267 3517 ft 191 kts 25°
2026-05-04 18:55 3.49902 8.83895 3517 ft 191 kts 25°
2026-05-04 18:56 3.51066 8.84522 3517 ft 191 kts 25°
2026-05-04 18:56 3.52232 8.85151 3517 ft 191 kts 25°
2026-05-04 18:56 3.53397 8.85779 3517 ft 191 kts 25°
2026-05-04 18:56 3.54570 8.86412 3517 ft 191 kts 25°
2026-05-04 18:57 3.55736 8.87040 3517 ft 191 kts 25°
2026-05-04 18:57 3.56921 8.87625 3517 ft 190 kts 20°
2026-05-04 18:57 3.58129 8.88152 3517 ft 190 kts 20°
2026-05-04 18:57 3.59336 8.88674 3517 ft 190 kts 20°
2026-05-04 18:58 3.60546 8.89197 3517 ft 190 kts 20°
2026-05-04 18:58 3.61760 8.89700 3517 ft 189 kts 17°
2026-05-04 18:58 3.62981 8.90179 3517 ft 190 kts 18°
2026-05-04 18:58 3.64213 8.90663 3517 ft 189 kts 18°
2026-05-04 18:59 3.65434 8.91141 3517 ft 189 kts 18°
2026-05-04 18:59 3.66656 8.91619 3517 ft 189 kts 18°
2026-05-04 18:59 3.67905 8.91994 3518 ft 188 kts 13°
2026-05-04 18:59 3.69173 8.92216 3514 ft 185 kts 355°
2026-05-04 19:00 3.70389 8.91913 3517 ft 181 kts 332°
2026-05-04 19:00 3.71515 8.91348 3397 ft 185 kts 330°
2026-05-04 19:00 3.72681 8.90755 3171 ft 190 kts 330°
2026-05-04 19:00 3.73699 8.89934 2943 ft 191 kts 310°
2026-05-04 19:01 3.74598 8.88955 2732 ft 191 kts 310°
2026-05-04 19:01 3.75478 8.87995 2511 ft 185 kts 311°
2026-05-04 19:01 3.76332 8.87067 2279 ft 180 kts 311°
2026-05-04 19:01 3.77169 8.86160 2038 ft 177 kts 311°
2026-05-04 19:02 3.77998 8.85265 1793 ft 175 kts 311°
2026-05-04 19:02 3.78826 8.84373 1544 ft 174 kts 311°
2026-05-04 19:02 3.79644 8.83493 1297 ft 173 kts 311°
2026-05-04 19:02 3.80455 8.82623 1043 ft 168 kts 311°
2026-05-04 19:03 3.81210 8.81819 892 ft 145 kts 311°
2026-05-04 19:03 3.81825 8.81177 907 ft 117 kts 311°
2026-05-04 19:03 3.82380 8.80609 939 ft 111 kts 310°
2026-05-04 19:03 3.82827 8.80037 1021 ft 101 kts 293°
2026-05-04 19:04 3.82968 8.79326 938 ft 107 kts 268°
2026-05-04 19:04 3.82871 8.78599 924 ft 104 kts 258°
2026-05-04 19:04 3.82663 8.77928 974 ft 99 kts 243°
2026-05-04 19:04 3.82277 8.77354 982 ft 101 kts 232°
2026-05-04 19:05 3.81787 8.76833 938 ft 106 kts 226°
2026-05-04 19:05 3.81266 8.76301 888 ft 107 kts 228°
2026-05-04 19:05 3.80779 8.75768 891 ft 103 kts 229°
2026-05-04 19:05 3.80287 8.75244 874 ft 102 kts 229°
2026-05-04 19:06 3.79807 8.74738 873 ft 99 kts 226°
2026-05-04 19:06 3.79294 8.74269 789 ft 101 kts 224°
2026-05-04 19:06 3.78775 8.73804 698 ft 100 kts 224°
2026-05-04 19:06 3.78256 8.73333 559 ft 103 kts 223°
2026-05-04 19:07 3.77729 8.72872 468 ft 96 kts 222°
2026-05-04 19:07 3.77257 8.72442 353 ft 90 kts 224°
2026-05-04 19:07 3.76800 8.72033 213 ft 86 kts 223°
2026-05-04 19:07 3.76387 8.71641 107 ft 78 kts 223°
2026-05-04 19:08 3.76016 8.71319 81 ft 63 kts 222°
2026-05-04 19:08 3.75738 8.71075 81 ft 29 kts 220°
2026-05-04 19:08 3.75616 8.71013 81 ft 19 kts 148°
2026-05-04 19:08 3.75521 8.71084 81 ft 16 kts 192°
2026-05-04 19:09 3.75430 8.71021 80 ft 16 kts 220°
2026-05-04 19:09 3.75329 8.70932 80 ft 23 kts 222°
2026-05-04 19:09 3.75194 8.70811 81 ft 29 kts 220°
2026-05-04 19:09 3.75036 8.70668 80 ft 31 kts 221°
2026-05-04 19:10 3.74899 8.70547 81 ft 17 kts 223°
2026-05-04 19:10 3.74824 8.70551 80 ft 13 kts 113°
2026-05-04 19:10 3.74819 8.70633 81 ft 7 kts 126°
2026-05-04 19:10 3.74795 8.70641 81 ft 4 kts 245°
2026-05-04 19:11 3.74795 8.70639 80 ft 0 kts 278°